Location: Mb�bougou
(13.2282°N, 5.0385°W)
Time: 16:19:55
(UTC+00:00)

Daily predictions for brighter satellites

Satellite Brightness Start Highest point End
(mag) Time Altitude Azimuth Time Altitude Azimuth Time Altitude Azimuth
ARIANE 5 R/B 4.4 16:19:33 10° WSW 16:24:37 60° SSE 17:04:36 10° E
CZ-4C R/B 3.3 18:08:44 10° SW 18:12:56 36° WNW 18:17:27 10° N
OAO 1 Rocket 4.5 18:08:24 10° NW 18:13:43 86° NNE 18:19:01 10° SE
Lacrosse 5 4.4 18:16:00 10° W 18:18:33 14° NW 18:21:05 10° NNW
Cosmos 1943 Rocket 3.8 18:17:30 10° NE 18:19:21 12° ENE 18:21:11 10° E
ISS -2.7 18:17:39 10° NW 18:20:55 50° SW 18:24:10 10° SSE
Cosmos 1782 Rocket 3.5 18:16:42 10° N 18:21:02 84° E 18:25:23 10° S
SKYMED 2 4.1 18:19:24 10° N 18:23:41 64° WNW 18:27:58 10° SSW
GPS 2-14 Rocket1 3.5 18:19:53 10° W 18:23:41 38° N 18:27:25 10° ENE
Meteor 2-4 Rocket 3.8 18:17:56 10° S 18:23:51 76° E 18:29:40 10° N
NOAA 12 4.1 18:21:32 10° SSE 18:26:49 71° ENE 18:32:04 10° N
CZ-3B R/B 2.9 18:25:44 10° NW 18:28:31 19° N 18:32:24 10° NE
Starlink Launch 2 leader 4.3 18:27:22 10° SSE 18:29:00 16° ESE 18:30:20 12° E
H-2A R/B 4.2 18:27:32 10° S 18:31:02 40° W 18:34:31 10° NNW
Starlink Launch 2 trailer 4.1 18:30:51 10° S 18:32:41 18° ESE 18:33:52 14° E
SMAP 4.4 18:31:01 10° S 18:35:26 43° W 18:39:50 10° NNW
Cosmos 405 Rocket 3.7 18:32:54 10° NNE 18:36:03 25° E 18:39:15 10° SE
BREEZE-M DEB (TANK) 4.2 18:34:07 10° N 18:36:33 21° ENE 18:41:08 10° ESE
Okean 2 Rocket 3.3 18:34:37 10° N 18:38:59 49° E 18:43:20 10° SSE
CZ-4 R/B 1.8 18:37:05 10° SE 18:40:42 35° ENE 18:44:15 10° N
USA 116 4.4 18:36:47 10° N 18:41:35 71° WNW 18:45:50 10° SSW
YAOGAN 6 2.5 18:39:02 10° SSE 18:42:29 61° ENE 18:45:59 10° N
Sich 1 Rocket 4.1 18:41:31 10° NNW 18:45:49 62° W 18:50:10 10° S
Cosmos 1674 Rocket 3.5 18:41:39 10° S 18:46:06 86° E 18:50:31 10° N
Cosmos 1417 Rocket 4.4 18:42:55 10° N 18:49:05 78° E 18:55:18 10° S
FALCON 9 DEB 2.7 18:47:10 10° SSW 18:49:20 39° SE 18:49:48 33° E
ATLAS 3B CENTAUR R/B 2.8 18:46:36 10° WSW 18:51:33 80° NNW 19:00:18 18° ENE
Genesis I 3.8 18:48:34 10° NNW 18:52:16 56° WSW 18:55:58 10° S
GPS 2-17 Rocket1 3.5 18:51:20 10° SW 18:55:45 50° SSE 18:58:18 22° E
YAOGAN 1 2.7 18:53:02 10° SSE 18:57:11 46° ENE 19:01:18 10° N
FALCON 9 DEB 2.0 18:55:22 10° SSW 18:57:37 63° SE 18:57:48 59° E
Cosmos 2297 4.4 18:56:11 10° NNW 19:01:41 58° WSW 19:07:11 10° S
SWIFT 2.5 18:57:39 10° WNW 19:01:49 53° NNE 19:03:32 31° ENE
Cosmos 1378 Rocket 3.5 18:57:43 10° S 19:02:01 87° W 19:06:19 10° N
ADEOS Rocket 3.2 18:59:19 16° NE 19:03:27 43° ESE 19:09:08 10° S
Okean-O 4.3 19:01:04 10° SSW 19:05:08 36° W 19:09:12 10° NNW
STARLINK 1022 4.3 19:02:17 10° S 19:05:29 28° ESE 19:05:50 28° ESE
Cosmos 1867 3.6 19:00:28 10° N 19:05:43 51° ENE 19:10:55 10° SE
Aureole 3 Rocket 2.8 19:03:04 10° N 19:06:33 83° W 19:11:12 10° S
STARLINK 1042 4.2 19:05:29 10° S 19:08:47 31° ESE 19:09:01 31° ESE
Cosmos 1975 4.2 19:05:41 10° NNW 19:09:27 41° W 19:13:16 10° SSW
NOAA 11 4.3 19:04:40 10° SSE 19:09:54 49° ENE 19:15:06 10° N
Cosmos 1300 Rocket 3.4 19:06:05 10° N 19:10:23 90° NW 19:14:43 10° S
IUS-18 SRM-1 4.1 19:08:53 10° W 19:10:36 16° SW 19:12:04 10° SSE
Cosmos 1544 2.9 19:08:08 10° N 19:11:45 73° E 19:15:23 10° S
STARLINK 1056 4.0 19:09:03 10° S 19:12:26 35° ESE 19:12:32 35° ESE
STARLINK 1054 3.9 19:12:38 10° SSW 19:16:03 39° SE 19:16:03 39° SE
BLOCK DM-SL R/B 4.3 18:29:53 10° W 19:16:33 41° SSW 19:22:05 11° SE
STARLINK 1062 3.8 19:16:07 10° SSW 19:19:29 44° SE 19:19:29 44° SE
CZ-2D R/B 3.1 19:17:34 10° SSE 19:21:22 65° ENE 19:21:56 56° NNE
STARLINK 1053 3.7 19:19:52 10° SSW 19:23:09 49° SE 19:23:09 49° SE
STARLINK 1061 3.6 19:23:18 10° SSW 19:26:30 52° SSE 19:26:30 52° SSE
Cosmos 1939 Rocket 2.7 19:23:36 10° SSE 19:27:39 77° ENE 19:28:26 55° N
USA 267 3.9 19:28:46 32° NE 19:28:46 32° NE 19:33:45 10° NNW
Meteor 1-12 Rocket 4.3 19:23:26 10° N 19:29:09 79° W 19:34:47 10° S
Cosmos 1244 Rocket 4.4 19:23:46 10° S 19:30:04 74° E 19:34:24 22° N
STARLINK 1067 3.7 19:26:57 10° SSW 19:30:02 55° S 19:30:02 55° S
STARLINK 1058 3.8 19:30:33 10° SSW 19:33:32 55° S 19:33:32 55° S
Okean 1 Rocket 4.4 19:36:26 27° SSE 19:36:26 27° SSE 19:38:34 10° SSE
Centaur D-1AR AC-41 3.5 19:31:50 10° WNW 19:35:41 60° NNE 19:37:29 44° ENE
STARLINK 1043 3.9 19:34:11 10° SSW 19:37:04 52° SSW 19:37:04 52° SSW
Iridium 4 Rocket 4.2 19:34:50 10° SSE 19:39:23 43° ESE 19:39:23 43° ESE
STARLINK 1065 4.1 19:37:48 10° SW 19:40:33 48° SW 19:40:33 48° SW
Cosmos 2369 Rocket 2.0 19:39:27 10° NNW 19:45:06 81° ENE 19:50:47 10° SSE
STARLINK 1063 4.4 19:41:33 10° SW 19:44:10 43° SW 19:44:10 43° SW
Cosmos 1745 Rocket 4.4 19:50:34 10° S 19:55:17 47° SE 19:55:17 47° SE
Cosmos 1943 Rocket 2.9 19:57:44 10° NNW 20:03:05 49° WSW 20:08:22 10° S
Ariane Rocket 4.3 20:05:56 10° S 20:08:41 32° S 20:08:41 32° S
ATLAS CENTAUR R/B 4.3 20:11:18 10° S 20:11:34 11° S 20:11:34 11° S
Skynet4D Del rocket 4.5 20:09:11 10° SW 20:15:13 52° S 20:15:13 52° S
CZ-3B R/B 4.0 20:18:56 10° NW 20:19:53 14° NW 20:19:53 14° NW
